CW2621 Weather Reports


time (UTC)temp
C
wind
direction
speed
KPH
gust
KPH
rain 1hr
cm
rain 24hr
cm
rain mn
cm
humidity
%
barometer
mb
20260507031550 11 164 0.0 4.8 0.15 0.91 0.91 92 1010.7
20260507031050 11 0 0.0 4.8 0.13 0.89 0.89 92 1010.7
20260507030550 11 114 0.0 1.6 0.13 0.89 0.89 92 1010.8
20260507030050 11 0 0.0 3.2 0.13 0.89 0.89 92 1010.7
20260507025611 11 79 0.0 3.2 0.10 0.86 0.86 92 1010.7
20260507025051 11 0 0.0 3.2 0.10 0.86 0.86 91 1010.4
20260507024550 12 0 0.0 4.8 0.08 0.84 0.84 91 1010.5
20260507024050 12 0 0.0 6.4 0.08 0.84 0.84 91 1010.4
20260507023551 12 163 1.6 8.0 0.05 0.81 0.81 91 1010.3
20260507023051 12 167 1.6 11.3 0.03 0.79 0.79 90 1010.4
20260507022551 13 163 0.0 11.3 0.03 0.79 0.79 91 1010.2
20260507022050 14 210 4.8 8.0 0.00 0.76 0.76 93 1010.0
20260507021551 14 0 0.0 4.8 0.00 0.76 0.76 93 1009.6
20260507021112 14 0 0.0 4.8 0.00 0.76 0.76 93 1009.5
20260507020550 14 0 0.0 6.4 0.00 0.76 0.76 93 1009.5
20260507020112 14 0 0.0 6.4 0.00 0.76 0.76 93 1009.6
20260507015551 14 0 0.0 6.4 0.00 0.76 0.76 93 1009.7
20260507015051 14 0 0.0 6.4 0.00 0.76 0.76 93 1009.5
20260507014611 14 0 0.0 6.4 0.00 0.76 0.76 93 1009.4
20260507014050 14 0 0.0 4.8 0.00 0.76 0.76 93 1009.5
20260507013551 14 0 0.0 4.8 0.00 0.76 0.76 93 1009.5
20260507013051 14 0 0.0 4.8 0.00 0.76 0.76 93 1009.7
20260507012551 14 0 0.0 4.8 0.00 0.76 0.76 93 1009.6
20260507012050 14 0 0.0 6.4 0.00 0.76 0.76 93 1009.4
20260507011551 14 0 0.0 9.7 0.00 0.76 0.76 93 1009.4
20260507010613 14 289 3.2 6.4 0.00 0.76 0.76 93 1009.3
20260507010111 14 0 0.0 6.4 0.00 0.76 0.76 93 1009.4
20260507005551 14 179 1.6 3.2 0.00 0.76 0.76 93 1009.3
20260507005051 14 0 0.0 3.2 0.00 0.76 0.76 93 1009.3
20260507004551 14 197 0.0 8.0 0.00 0.76 0.76 93 1009.2
20260507004051 14 199 0.0 8.0 0.00 0.76 0.76 93 1008.9
20260507003612 14 0 0.0 11.3 0.00 0.76 0.76 93 1009.1
20260507003112 14 0 0.0 11.3 0.00 0.76 0.76 93 1009.3
20260507002550 14 216 6.4 8.0 0.00 0.76 0.76 93 1009.4
20260507002050 14 0 0.0 8.0 0.00 0.76 0.76 93 1009.4
20260507001551 14 0 0.0 6.4 0.00 0.76 0.76 93 1009.5
20260507001111 14 0 0.0 6.4 0.00 0.76 0.76 93 1009.6
20260507000551 14 201 4.8 6.4 0.00 0.76 0.76 93 1009.5
20260507000111 14 0 0.0 6.4 0.00 0.76 0.76 93 1009.6
20260506235550 14 211 4.8 6.4 0.00 0.76 0.76 93 1009.4
20260506235051 14 0 0.0 8.0 0.00 0.76 0.76 93 1009.4
20260506234550 14 205 3.2 8.0 0.00 0.76 0.76 93 1009.2
20260506234051 14 153 0.0 8.0 0.03 0.76 0.76 92 1009.2
20260506233550 14 286 3.2 8.0 0.03 0.76 0.76 92 1009.1
20260506233111 14 188 0.0 8.0 0.03 0.76 0.76 92 1009.1
20260506232551 14 0 0.0 4.8 0.03 0.76 0.76 92 1009.1
20260506232051 14 0 0.0 6.4 0.05 0.76 0.76 92 1009.0
20260506231551 14 222 1.6 6.4 0.05 0.76 0.76 92 1008.9
20260506231050 14 0 0.0 6.4 0.05 0.76 0.76 92 1008.9
20260506230550 14 185 3.2 11.3 0.08 0.76 0.76 92 1008.9
20260506230051 14 217 3.2 11.3 0.08 0.76 0.76 92 1008.8
20260506225551 14 191 1.6 6.4 0.08 0.76 0.76 92 1008.8
20260506225051 14 0 0.0 6.4 0.10 0.76 0.76 92 1008.8
20260506224550 14 226 1.6 9.7 0.10 0.76 0.76 92 1008.8
20260506224051 14 302 3.2 9.7 0.08 0.74 0.74 92 1008.8
20260506223551 13 203 0.0 6.4 0.08 0.74 0.74 92 1008.8
20260506223050 14 201 0.0 6.4 0.08 0.74 0.74 92 1008.7
20260506222551 14 0 0.0 3.2 0.08 0.74 0.74 92 1008.8
20260506222051 14 210 0.0 3.2 0.05 0.71 0.71 92 1008.8
20260506221611 14 0 0.0 3.2 0.08 0.71 0.71 92 1008.8
20260506221050 14 0 0.0 4.8 0.08 0.71 0.71 92 1008.8
20260506220611 14 0 0.0 4.8 0.05 0.69 0.69 92 1008.8
20260506220050 14 219 1.6 4.8 0.08 0.69 0.69 92 1009.0
20260506215551 14 200 1.6 4.8 0.08 0.69 0.69 92 1008.8
20260506215051 14 0 0.0 4.8 0.08 0.66 0.66 92 1008.9
20260506214551 14 0 0.0 4.8 0.10 0.66 0.66 92 1008.8
20260506214051 14 348 0.0 4.8 0.13 0.66 0.66 92 1008.8
20260506213551 14 0 0.0 4.8 0.15 0.66 0.66 92 1008.6
20260506213051 14 0 0.0 9.7 0.18 0.66 0.66 92 1008.8
20260506212550 14 0 0.0 11.3 0.20 0.66 0.66 92 1008.8
20260506212112 14 212 0.0 11.3 0.20 0.66 0.66 92 1009.0
20260506211551 14 0 0.0 6.4 0.18 0.64 0.64 92 1009.0
20260506211051 14 188 1.6 4.8 0.18 0.64 0.64 92 1009.0
20260506210551 14 180 0.0 4.8 0.18 0.64 0.64 92 1009.0
20260506210112 14 201 1.6 4.8 0.18 0.61 0.61 91 1009.2
20260506205551 14 184 3.2 4.8 0.18 0.61 0.61 91 1009.2
20260506205051 14 0 0.0 4.8 0.18 0.58 0.58 91 1009.3
20260506204611 14 0 0.0 4.8 0.15 0.56 0.56 91 1009.3
20260506204051 14 158 1.6 4.8 0.15 0.53 0.53 91 1009.3
20260506203551 14 172 3.2 4.8 0.13 0.51 0.51 91 1009.4
20260506203051 14 0 0.0 4.8 0.10 0.48 0.48 91 1009.5
20260506202551 14 208 1.6 3.2 0.08 0.46 0.46 91 1009.5
20260506202051 14 250 0.0 8.0 0.08 0.46 0.46 91 1009.4
20260506201551 14 173 1.6 8.0 0.08 0.46 0.46 90 1009.3
20260506201051 14 123 8.0 8.0 0.08 0.46 0.46 90 1009.4
20260506200551 14 153 0.0 6.4 0.08 0.46 0.46 91 1009.4
20260506200051 14 0 0.0 6.4 0.05 0.43 0.43 90 1009.5
20260506195551 14 242 4.8 6.4 0.08 0.43 0.43 90 1009.6
20260506195051 14 162 1.6 6.4 0.05 0.41 0.41 90 1009.6
20260506194612 14 241 0.0 6.4 0.05 0.41 0.41 90 1009.6
20260506194051 14 220 1.6 8.0 0.03 0.38 0.38 90 1009.6
20260506193551 14 0 0.0 8.0 0.05 0.38 0.38 90 1009.7
20260506193050 14 240 4.8 8.0 0.05 0.38 0.38 90 1009.9
20260506192551 14 174 3.2 4.8 0.05 0.38 0.38 90 1009.6
20260506192051 14 0 0.0 9.7 0.08 0.38 0.38 90 1009.7
20260506191551 14 212 0.0 9.7 0.08 0.38 0.38 90 1010.0
20260506191050 14 217 3.2 9.7 0.08 0.38 0.38 90 1010.1
20260506190551 14 0 0.0 11.3 0.10 0.38 0.38 90 1009.8
20260506190051 14 221 3.2 11.3 0.10 0.38 0.38 90 1009.8
20260506185551 14 134 8.0 11.3 0.10 0.36 0.36 90 1010.0
20260506185112 14 214 4.8 6.4 0.10 0.36 0.36 90 1010.2
20260506184612 14 0 0.0 6.4 0.13 0.36 0.36 90 1010.3
20260506184050 14 258 1.6 8.0 0.15 0.36 0.36 90 1010.2
20260506183550 14 231 1.6 8.0 0.18 0.33 0.33 90 1010.2
20260506183051 14 117 1.6 14.5 0.23 0.33 0.33 89 1010.1
20260506182551 14 304 1.6 14.5 0.28 0.33 0.33 89 1010.0
20260506182050 14 226 6.4 12.9 0.28 0.30 0.30 89 1009.8
20260506181551 14 323 3.2 12.9 0.28 0.30 0.30 89 1009.9
20260506181050 14 257 1.6 11.3 0.30 0.30 0.30 89 1009.9
20260506180551 15 282 4.8 9.7 0.28 0.28 0.28 89 1010.0
20260506180051 15 254 0.0 9.7 0.28 0.28 0.28 88 1010.3
20260506175551 15 0 0.0 9.7 0.25 0.25 0.25 88 1010.4
20260506175051 15 328 3.2 4.8 0.25 0.25 0.25 88 1010.6
20260506174551 15 214 3.2 4.8 0.23 0.23 0.23 88 1010.7
20260506174112 15 219 0.0 3.2 0.20 0.20 0.20 87 1010.8
20260506173551 15 0 0.0 4.8 0.15 0.15 0.15 86 1011.0
20260506173112 16 195 0.0 4.8 0.10 0.10 0.10 85 1011.2
20260506172551 16 195 1.6 3.2 0.05 0.05 0.05 84 1011.2
20260506172051 16 226 1.6 4.8 0.03 0.03 0.03 82 1011.2
20260506171551 16 233 1.6 4.8 0.03 0.03 0.03 81 1011.4
20260506171051 17 191 3.2 6.4 0.00 0.00 0.00 80 1011.5
20260506170551 17 0 0.0 6.4 0.00 0.00 0.00 78 1011.6
20260506170051 17 0 0.0 8.0 0.00 0.00 0.00 76 1011.7
20260506165551 18 233 3.2 9.7 0.00 0.00 0.00 75 1011.5
20260506165051 18 196 4.8 9.7 0.00 0.00 0.00 73 1011.4
20260506164551 18 177 4.8 12.9 0.00 0.00 0.00 70 1011.2
20260506164051 18 137 1.6 12.9 0.00 0.00 0.00 70 1011.3
20260506163550 19 174 1.6 11.3 0.00 0.00 0.00 71 1011.2
20260506163051 19 262 4.8 16.1 0.00 0.00 0.00 70 1011.2
20260506162551 19 225 3.2 16.1 0.00 0.00 0.00 70 1011.2
20260506162051 18 153 3.2 12.9 0.00 0.00 0.00 69 1011.1
20260506161551 19 179 3.2 11.3 0.00 0.00 0.00 70 1011.4
20260506161051 18 164 1.6 14.5 0.00 0.00 0.00 70 1011.5
20260506160551 18 208 0.0 16.1 0.00 0.00 0.00 69 1011.5
20260506160051 18 162 1.6 16.1 0.00 0.00 0.00 70 1011.7
20260506155551 18 0 0.0 14.5 0.00 0.00 0.00 69 1011.7
20260506155112 19 143 8.0 14.5 0.00 0.00 0.00 68 1011.7
20260506154551 19 57 6.4 14.5 0.00 0.00 0.00 68 1011.6
20260506154051 19 181 3.2 9.7 0.00 0.00 0.00 68 1011.6
20260506153551 19 143 1.6 11.3 0.00 0.00 0.00 68 1011.5
20260506153051 19 200 0.0 11.3 0.00 0.00 0.00 68 1011.5
20260506152551 19 324 8.0 11.3 0.00 0.00 0.00 68 1011.6
20260506152111 19 249 3.2 11.3 0.00 0.00 0.00 67 1011.5
20260506151551 19 104 1.6 11.3 0.00 0.00 0.00 67 1011.5
20260506151051 19 0 0.0 11.3 0.00 0.00 0.00 68 1011.5
20260506150612 19 205 4.8 12.9 0.00 0.00 0.00 67 1011.6
20260506150051 19 238 3.2 12.9 0.00 0.00 0.00 68 1011.6
20260506145551 19 176 0.0 14.5 0.00 0.00 0.00 70 1011.6
20260506145050 19 174 0.0 16.1 0.00 0.00 0.00 68 1011.8
20260506144551 19 129 4.8 17.7 0.00 0.00 0.00 69 1011.8
20260506144051 19 160 3.2 17.7 0.00 0.00 0.00 68 1011.9
20260506143551 19 108 0.0 20.9 0.00 0.00 0.00 70 1011.9
20260506143051 19 192 3.2 20.9 0.00 0.00 0.00 69 1011.8
20260506142612 18 161 3.2 20.9 0.00 0.00 0.00 69 1011.9
20260506142112 18 274 1.6 12.9 0.00 0.00 0.00 70 1011.9
20260506141612 18 134 6.4 12.9 0.00 0.00 0.00 70 1011.9
20260506141051 18 230 1.6 14.5 0.00 0.00 0.00 71 1012.0
20260506140551 18 122 1.6 16.1 0.00 0.00 0.00 71 1012.1
20260506140112 18 50 1.6 16.1 0.00 0.00 0.00 72 1012.0
20260506135551 18 202 1.6 16.1 0.00 0.00 0.00 73 1011.9
20260506135051 18 66 9.7 16.1 0.00 0.00 0.00 72 1011.8
20260506134612 18 185 3.2 16.1 0.00 0.00 0.00 73 1011.6
20260506134050 18 224 4.8 16.1 0.00 0.00 0.00 73 1011.6
20260506133551 18 249 6.4 9.7 0.00 0.00 0.00 73 1011.8
20260506133051 18 181 3.2 9.7 0.00 0.00 0.00 74 1011.9
20260506132551 17 148 3.2 8.0 0.00 0.00 0.00 75 1012.0
20260506132051 17 198 3.2 9.7 0.00 0.00 0.00 75 1012.0
20260506131551 17 169 1.6 16.1 0.00 0.00 0.00 76 1011.9
20260506131050 17 133 1.6 16.1 0.00 0.00 0.00 76 1012.0
20260506130551 17 124 3.2 12.9 0.00 0.00 0.00 76 1012.0
20260506130051 17 102 6.4 12.9 0.00 0.00 0.00 77 1012.3
20260506125612 17 309 1.6 6.4 0.00 0.00 0.00 78 1012.3
20260506125051 17 66 4.8 9.7 0.00 0.00 0.00 78 1012.6
20260506124612 17 128 6.4 9.7 0.00 0.00 0.00 78 1012.6
20260506124051 16 161 3.2 4.8 0.00 0.00 0.00 79 1012.7
20260506123551 16 150 0.0 8.0 0.00 0.00 0.00 78 1012.6
20260506123051 16 0 0.0 8.0 0.00 0.00 0.00 79 1012.6
20260506122551 16 138 3.2 8.0 0.00 0.00 0.00 79 1012.6
20260506122112 16 250 1.6 6.4 0.00 0.00 0.00 79 1012.6
20260506121551 16 203 4.8 8.0 0.00 0.00 0.00 79 1012.3
20260506121051 16 153 1.6 12.9 0.00 0.00 0.00 79 1012.4
20260506120551 16 197 3.2 12.9 0.00 0.00 0.00 79 1012.4
20260506120112 16 202 1.6 9.7 0.00 0.00 0.00 80 1012.4
20260506115551 16 99 1.6 11.3 0.00 0.00 0.00 80 1012.4
20260506115051 16 100 3.2 11.3 0.00 0.00 0.00 80 1012.3
20260506114551 16 0 0.0 12.9 0.00 0.00 0.00 80 1012.4
20260506114051 16 120 6.4 12.9 0.00 0.00 0.00 80 1012.2
20260506113551 16 223 1.6 12.9 0.00 0.00 0.00 81 1012.1
20260506113112 16 228 4.8 9.7 0.00 0.00 0.00 81 1012.0
20260506112551 16 162 3.2 9.7 0.00 0.00 0.00 81 1012.3
20260506112051 15 248 3.2 9.7 0.00 0.00 0.00 81 1012.5
20260506111551 15 281 0.0 11.3 0.00 0.00 0.00 81 1012.5
20260506111051 15 295 0.0 12.9 0.00 0.00 0.00 82 1012.6
20260506110551 15 195 1.6 12.9 0.00 0.00 0.00 82 1012.6
20260506110051 15 182 1.6 11.3 0.00 0.00 0.00 83 1012.6
20260506105551 15 205 0.0 11.3 0.00 0.00 0.00 82 1012.5
20260506105051 15 96 1.6 14.5 0.00 0.00 0.00 82 1012.5
20260506104551 15 0 0.0 14.5 0.00 0.00 0.00 82 1012.7
20260506104051 15 155 3.2 8.0 0.00 0.00 0.00 82 1012.4
20260506103551 15 285 1.6 8.0 0.00 0.00 0.00 82 1012.3
20260506103051 15 190 1.6 8.0 0.00 0.00 0.00 82 1012.3
20260506102551 15 182 0.0 11.3 0.00 0.00 0.00 82 1012.4
20260506102112 15 216 3.2 14.5 0.00 0.00 0.00 83 1012.2
20260506101551 15 210 1.6 14.5 0.00 0.00 0.00 83 1012.2
20260506101051 15 11 4.8 8.0 0.00 0.00 0.00 83 1012.2
20260506100551 15 142 1.6 14.5 0.00 0.00 0.00 83 1012.2
20260506100051 15 184 0.0 14.5 0.00 0.00 0.00 83 1012.1
20260506095551 15 49 4.8 6.4 0.00 0.00 0.00 83 1012.2
20260506095112 15 213 1.6 8.0 0.00 0.00 0.00 83 1012.2
20260506094551 15 0 0.0 8.0 0.00 0.00 0.00 83 1012.1
20260506094051 15 84 3.2 6.4 0.00 0.00 0.00 83 1012.1
20260506093612 15 131 0.0 6.4 0.00 0.00 0.00 83 1012.2
20260506093051 15 0 0.0 9.7 0.00 0.00 0.00 83 1012.3
20260506092551 15 183 3.2 9.7 0.00 0.00 0.00 82 1012.3
20260506092051 15 106 1.6 11.3 0.00 0.00 0.00 82 1012.2
20260506091551 15 238 3.2 11.3 0.00 0.00 0.00 82 1012.2
20260506091051 15 208 3.2 9.7 0.00 0.00 0.00 82 1012.2
20260506090551 15 201 1.6 8.0 0.00 0.00 0.00 82 1012.3
20260506090051 15 201 1.6 11.3 0.00 0.00 0.00 82 1012.1
20260506085551 15 195 1.6 11.3 0.00 0.00 0.00 82 1012.2
20260506085051 15 184 3.2 11.3 0.00 0.00 0.00 82 1012.3
20260506084551 15 140 4.8 9.7 0.00 0.00 0.00 81 1012.3
20260506084051 15 0 0.0 12.9 0.00 0.00 0.00 81 1012.4
20260506083551 15 52 9.7 12.9 0.00 0.00 0.00 81 1012.3
20260506083051 15 199 1.6 11.3 0.00 0.00 0.00 81 1012.3
20260506082551 15 264 3.2 8.0 0.00 0.00 0.00 81 1012.3
20260506082112 15 224 4.8 8.0 0.00 0.00 0.00 80 1012.2
20260506081551 15 220 3.2 6.4 0.00 0.00 0.00 80 1012.1
20260506081051 15 194 1.6 6.4 0.00 0.00 0.00 80 1012.3
20260506080551 15 179 4.8 6.4 0.00 0.00 0.00 80 1012.3
20260506080112 15 169 3.2 9.7 0.00 0.00 0.00 79 1012.3
20260506073051 15 148 3.2 8.0 0.00 0.00 0.00 79 1012.3
20260506072551 15 245 1.6 9.7 0.00 0.00 0.00 78 1012.4
20260506072051 15 325 1.6 11.3 0.00 0.00 0.00 78 1012.4
20260506071551 15 232 1.6 12.9 0.00 0.00 0.00 78 1012.3
20260506071051 15 218 1.6 12.9 0.00 0.00 0.00 78 1012.3
20260506070551 15 255 1.6 12.9 0.00 0.00 0.00 78 1012.4
20260506062051 15 172 3.2 9.7 0.00 0.00 0.00 78 1012.3
20260506061552 15 186 3.2 11.3 0.00 0.00 0.00 77 1012.4
20260506061051 15 230 1.6 11.3 0.00 0.00 0.00 77 1012.3
20260506060551 15 177 1.6 11.3 0.00 0.00 0.00 77 1012.4
20260506051051 16 170 1.6 8.0 0.00 0.00 0.00 75 1012.7
20260506050551 16 247 1.6 8.0 0.00 0.00 0.00 75 1012.9
20260506045051 16 160 3.2 9.7 0.00 0.00 0.00 74 1012.9
20260506044552 16 226 0.0 9.7 0.00 0.00 0.00 73 1013.0
20260506044051 16 148 1.6 8.0 0.00 0.00 0.00 73 1012.9
20260506043551 17 334 4.8 12.9 0.00 0.00 0.00 72 1013.0
20260506043113 17 145 4.8 12.9 0.00 0.00 0.00 72 1013.1
20260506042612 17 106 4.8 9.7 0.00 0.00 0.00 72 1013.0
20260506042113 17 218 3.2 9.7 0.00 0.00 0.00 72 1013.0
20260506041612 17 0 0.0 11.3 0.00 0.00 0.00 71 1013.0
20260506041052 17 128 1.6 11.3 0.00 0.00 0.00 71 1013.1
20260506040551 17 109 9.7 11.3 0.00 0.00 0.00 71 1013.0
20260506040051 17 242 4.8 17.7 0.00 0.00 0.00 70 1013.1
20260506035610 17 115 3.2 17.7 0.00 0.00 0.00 70 1013.1
20260506035050 17 162 1.6 17.7 0.00 0.00 0.00 69 1013.1
20260506034550 17 205 3.2 8.0 0.00 0.00 0.00 68 1013.1
20260506034049 17 80 3.2 8.0 0.00 0.00 0.00 68 1013.1
20260506033550 17 330 6.4 12.9 0.00 0.00 0.00 68 1013.1
20260506033050 17 208 1.6 12.9 0.00 0.00 0.00 68 1013.2
20260506032550 17 119 3.2 12.9 0.00 0.00 0.00 67 1013.2
20260506032050 17 198 6.4 12.9 0.00 0.00 0.00 67 1013.2